Regional Weather Roundup
Issued by NWS Huntsville, AL

Home | Current Version | Previous Version | Text Only | Print | Product List | Glossary On
Versions: 1 2 3 4 5 6 7 8 9 10 11 12 13 14 15 16 17 18 19 20 21 22 23 24 25 26 27 28 29 30 31 32 33 34 35 36 37 38 39 40 41 42 43 44 45 46 47 48 49 50
000
ASUS44 KHUN 221110
RWRHUN

WEATHER ROUNDUP FOR THE TENNESSEE VALLEY
NATIONAL WEATHER SERVICE HUNTSVILLE AL
500 AM CST FRI NOV 22 2019

ALZ001>004-221200-
NORTHWEST ALABAMA

CITY           SKY/WX    TMP DP  RH WIND       PRES   REMARKS
SHOALS AIRPORT LGT RAIN  59  54  83 SW7       30.01F
$$

ALZ005>007-016-221200-
NORTH CENTRAL ALABAMA

CITY           SKY/WX    TMP DP  RH WIND       PRES   REMARKS
DECATUR AP     LGT RAIN  57  51  80 S8        30.05S
HUNTSVILLE AP  MOCLDY    56  51  84 S6        30.05R
HUN NWS/UAH      N/A     55  49  79 S1          N/A
MERIDIANVILLE  CLOUDY    55  50  82 SW6       30.06R
VINEMONT AP    LGT RAIN  53  48  84 S7        30.08F
$$

ALZ008>010-221200-
NORTHEAST ALABAMA

CITY           SKY/WX    TMP DP  RH WIND       PRES   REMARKS
ALBERTVILLE    MOCLDY    54  46  76 SW5       30.08S
FORT PAYNE     MOCLDY    51  46  80 SE5       30.06R
SCOTTSBORO AP  CLOUDY    55  52  88 SW6       30.07R
$$

TNZ076-096-097-221200-
SOUTHEASTERN MIDDLE TENNESSEE

CITY           SKY/WX    TMP DP  RH WIND       PRES   REMARKS
FAYETTEVILLE   CLOUDY    54  50  87 SW6       30.04S
TULLAHOMA      CLOUDY    52  48  87 W5        30.05R
WINCHESTER     CLOUDY    54  50  87 CALM      30.05R
$$

...SURROUNDING SITES...

CITY           SKY/WX    TMP DP  RH WIND       PRES   REMARKS
ATLANTA        MOCLDY    51  41  68 CALM      30.11S
ANNISTON       CLOUDY    50  46  86 CALM      30.10R
BIRMINGHAM     MOCLDY    59  53  80 S8        30.10R
CHATTANOOGA    CLOUDY    52  46  80 CALM      30.07S
CORINTH        CLOUDY    57  54  88 S5        29.99S
DALTON         FAIR      54  43  66 CALM      30.09F
GADSDEN        CLOUDY    47  46  97 CALM      30.11R
GOLDEN TRNGL   FAIR      55  53  93 SE8       30.03F
HALEYVILLE     CLOUDY    54  51  90 S10       30.06F
JACKSON TN     LGT RAIN  63  56  78 N8        29.99R
MEMPHIS        RAIN      63  60  90 SW15G25   29.93F FOG
NASHVILLE      LGT RAIN  54  51  90 SE5       30.00F FOG
OXFORD MS      MOCLDY    57  55  94 VRB6G13   29.99S
ROME           FAIR      49  44  83 SE3       30.07S
SAVANNAH       MOCLDY    57  55  94 S9        29.98S
SELMER         CLOUDY    55  54  94 S6G13     29.98R
TUPELO         FAIR      56  51  84 S8        30.00F
TUSCALOOSA     MOCLDY    55  51  86 S5        30.07R
$$




USA.gov is the U.S. government's official web portal to all federal, state and local government web resources and services.